[[{"header":{"parameterUnit":"m.s-1","parameterCategory":1,"la1":30.2991,"la2":30.254,"lo1":-89.0895,"lo2":-89.0444,"dy":0.0017,"dx":0.0017,"nx":28,"ny":28,"refTime":"2026-02-12T03:00:00:Z","depth":0,"parameterNumber":2,"parameterNumberName":"U-component_of_WINDS"},"data":[0,0,0,0,0,0,0,0,0,0,0,0,0,0,0,0,0,0,0,0,0,0,0,0,0,0,0,0,0,0,0,0,0,0,0,0,0,0,0,0,0,0,0,0,0,0,0,0,0,0,0,0,0,0,0,0,0,0,1.021,1.0211,0,1.0243,1.0243,1.0243,1.0197,1.0196,1.0194,1.0192,1.0232,1.0235,1.0237,0,0,0,0,0,0,0,0,0,0,0,0,0,1.0114,1.0116,1.021,1.0211,1.0211,1.0243,1.0243,1.0243,1.0198,1.0196,1.0194,1.0192,1.0231,1.0235,1.0238,0,0,0,0,0,0,0,0,0,0,0,0,0,1.0153,1.0117,1.021,1.0192,1.019,1.0242,1.0243,1.0244,1.0198,1.0196,1.0193,1.0191,1.023,1.0234,1.0238,1.0312,0,0,1.025,1.0252,0,0,0,0,0,0,0,0,1.0151,1.0156,1.0194,1.0193,1.0192,1.0213,1.0224,1.0267,1.0199,1.0195,1.0192,1.019,1.0228,1.0232,1.0244,1.0314,1.0315,1.025,1.0253,1.0254,1.0255,0,0,0,0,0,0,0,1.0148,1.0155,1.0223,1.0195,1.0193,1.0184,1.0186,1.0232,1.0226,1.0195,1.0192,1.0196,1.0227,1.024,1.0245,1.0316,1.025,1.0254,1.0256,1.0258,1.0447,1.045,0,0,0,0,0,0,1.0147,1.0153,1.0222,1.0224,1.0164,1.0188,1.019,1.0209,1.0225,1.0225,1.0198,1.0194,1.0235,1.024,1.0246,1.0332,1.0254,1.0258,1.026,1.0444,1.0448,1.0451,0,0,0,0,0,0,1.0145,1.0153,1.0221,1.0187,1.0195,1.0192,1.0213,1.0211,1.0224,1.0227,1.0226,1.0212,1.0233,1.024,1.0295,1.0333,1.026,1.0263,1.0441,1.0445,1.0449,1.0507,0,0,0,0,0,0,1.0142,1.0153,1.0179,1.0188,1.0197,1.0268,1.0215,1.0213,1.023,1.0224,1.024,1.024,1.0232,1.0289,1.0299,1.0337,1.0266,1.0438,1.0443,1.0448,1.0502,1.0512,1.0522,0,0,0,0,0,1.0139,1.0196,1.0181,1.019,1.023,1.027,1.0275,1.0263,1.0233,1.0261,1.0263,1.024,1.0328,1.0295,1.0306,1.0346,1.0435,1.0442,1.0447,1.0497,1.051,1.0521,0,0,0,0,0,0,1.0194,1.0197,1.018,1.0241,1.0256,1.0262,1.0297,1.0277,1.0302,1.0296,1.0281,1.0285,1.0343,1.035,1.0314,1.0418,1.0377,1.0385,1.0411,1.0424,1.0433,1.0431,1.027,0,0,0,0,0,1.0213,1.0243,1.0245,1.0299,1.0307,1.03,1.0318,1.0306,1.0321,1.0328,1.0334,1.0351,1.0382,1.0403,1.0432,1.0502,1.0505,1.0535,1.0545,1.0553,1.0561,1.0598,1.0611,1.047,1.047,1.047,0,0,1.0253,1.0259,1.0279,1.031,1.032,1.0353,1.0306,1.0344,1.0369,1.0334,1.0385,1.039,1.0409,1.0471,1.0499,1.0479,1.06,1.0561,1.0568,1.0571,1.0606,1.0619,1.0631,1.0475,1.0474,1.0473,0,0,1.0343,1.035,1.0395,1.0405,1.042,1.0415,1.0426,1.0435,1.0436,1.0487,1.0462,1.0492,1.0547,1.056,1.0575,1.0669,1.0649,1.0679,1.0732,1.0769,1.078,1.0789,1.0823,1.0835,1.0687,1.0687,1.0687,0,1.0392,1.0439,1.0422,1.046,1.0475,1.0443,1.0489,1.0501,1.0525,1.0537,1.0513,1.058,1.059,1.0655,1.0678,1.069,1.0703,1.0678,1.0779,1.0789,1.0798,1.083,1.0842,1.0691,1.069,1.069,1.0689,0,1.0498,1.0532,1.0567,1.0588,1.0607,1.0649,1.064,1.0662,1.0649,1.0647,1.0699,1.071,1.074,1.0755,1.0744,1.0819,1.0806,1.0781,1.0739,1.0815,1.0845,1.0857,1.0696,1.0694,1.0693,1.0692,0,0,1.0624,1.0634,1.0647,1.0656,1.0669,1.0696,1.0738,1.0765,1.0784,1.0802,1.0837,1.0883,1.0859,1.0876,1.0866,1.0898,1.0972,1.0869,1.087,1.0888,1.1055,1.1073,1.1088,1.0958,1.0961,1.0963,1.1053,0,1.0714,1.0783,1.0768,1.0837,1.0868,1.0837,1.0874,1.0887,1.0886,1.0914,1.0914,1.0947,1.0914,1.0923,1.0954,1.0956,1.1005,1.095,1.0993,1.0994,1.0988,1.1103,1.1123,1.1208,1.1065,1.1067,1.1068,0,1.0827,1.0846,1.0917,1.0924,1.0937,1.097,1.0993,1.1019,1.1034,1.1032,1.1049,1.1033,1.1076,1.1034,1.1093,1.1056,1.1073,1.1077,1.108,1.1083,1.1036,1.111,1.1235,1.1247,1.1086,1.1085,1.1084,0,1.0911,1.0956,1.1003,1.1012,1.1022,1.1046,1.1051,1.1063,1.108,1.1102,1.1113,1.114,1.1155,1.1178,1.117,1.114,1.1231,1.1188,1.1231,1.1232,1.1252,1.1251,1.1381,1.1263,1.1263,1.1263,1.1263,0,1.1013,1.1057,1.1041,1.1071,1.112,1.1104,1.1154,1.1156,1.1167,1.1198,1.1174,1.1204,1.1192,1.1221,1.1216,1.1266,1.1274,1.1274,1.1272,1.1276,1.1276,1.1287,1.1281,1.1266,1.1266,1.1265,1.1264,0,1.1115,1.1106,1.1156,1.1161,1.1163,1.1199,1.1204,1.1233,1.123,1.1269,1.1278,1.1274,1.1308,1.1302,1.134,1.1336,1.1399,1.139,1.1393,1.1391,1.1434,1.143,1.1576,1.1595,1.1465,1.1466,1.1467,0,1.118,1.1213,1.1221,1.1238,1.1245,1.1274,1.1291,1.1276,1.1295,1.1314,1.134,1.1371,1.1395,1.145,1.1453,1.1481,1.1473,1.1522,1.1477,1.148,1.1474,1.1471,1.1475,1.1531,1.1533,1.1534,1.1535,0,1.1296,1.129,1.1313,1.1336,1.1356,1.1373,1.1389,1.1405,1.1392,1.1415,1.1447,1.1466,1.1503,1.1534,1.1561,1.1569,1.155,1.1549,1.156,1.1565,1.1565,1.1565,1.1417,1.1545,1.1544,1.1544,1.1543,1.1543,1.1382,1.141,1.1419,1.1446,1.1456,1.147,1.1497,1.1497,1.1523,1.155,1.1541,1.1578,1.1592,1.1626,1.1637,1.1667,1.1649,1.1666,1.167,1.1674,1.1679,1.156,1.1672,1.1672,1.1671,1.1671,1.1671,0,1.1496,1.15,1.1526,1.1547,1.1568,1.1546,1.1562,1.1583,1.1615,1.1628,1.1652,1.1689,1.1719,1.1724,1.1752,1.1776,1.1768,1.1784,1.1782,1.1784,1.1694,1.1681,1.179,1.179,1.179,1.179,1.179,1.179,1.1559,1.1604,1.1599,1.165,1.1654,1.1688,1.1699,1.1713,1.1724,1.1766,1.179,1.1791,1.1802,1.1831,1.1858,1.1859,1.187,1.189,1.1887,1.1803,1.1791,1.1779,1.1767,1.1892,1.1893,1.1975,1.1976,1.1976]},{"header":{"parameterUnit":"m.s-1","parameterCategory":1,"la1":30.2991,"la2":30.254,"lo1":-89.0895,"lo2":-89.0444,"dy":0.0017,"dx":0.0017,"nx":28,"ny":28,"refTime":"2026-02-12T03:00:00:Z","depth":0,"parameterNumber":3,"parameterNumberName":"V-component_of_WINDS"},"data":[0,0,0,0,0,0,0,0,0,0,0,0,0,0,0,0,0,0,0,0,0,0,0,0,0,0,0,0,0,0,0,0,0,0,0,0,0,0,0,0,0,0,0,0,0,0,0,0,0,0,0,0,0,0,0,0,0,0,1.0063,1.0063,0,1.0046,1.0045,1.0045,1.0026,1.0025,1.0025,1.0025,1.0006,1.0005,1.0005,0,0,0,0,0,0,0,0,0,0,0,0,0,1.0079,1.0079,1.0063,1.0063,1.0063,1.0046,1.0045,1.0045,1.0026,1.0025,1.0025,1.0025,1.0006,1.0005,1.0005,0,0,0,0,0,0,0,0,0,0,0,0,0,1.0068,1.0079,1.0063,1.0051,1.005,1.0046,1.0045,1.0045,1.0026,1.0025,1.0025,1.0025,1.0006,1.0005,1.0005,1.0011,0,0,1.0004,1.0004,0,0,0,0,0,0,0,0,1.0069,1.0067,1.0053,1.0052,1.005,1.0037,1.0044,1.0034,1.0026,1.0035,1.0025,1.0024,1.0016,1.0015,1.0013,1.001,1.0009,1.0004,1.0004,1.0003,1.0003,0,0,0,0,0,0,0,1.0069,1.0068,1.0056,1.0053,1.0051,1.0046,1.0044,1.0042,1.0028,1.0034,1.0033,1.0031,1.0016,1.0013,1.0012,1.0009,1.0004,1.0004,1.0003,1.0003,1.001,1.0011,0,0,0,0,0,0,1.0072,1.0069,1.0057,1.0056,1.0059,1.0046,1.0044,1.0042,1.0028,1.0026,1.0031,1.003,1.0014,1.0013,1.0011,1.0017,1.0003,1.0003,1.0003,1.001,1.001,1.0011,0,0,0,0,0,0,1.0073,1.0071,1.0057,1.0062,1.006,1.0046,1.0044,1.0042,1.0039,1.0026,1.0023,1.0031,1.0014,1.0012,1.0011,1.0016,1.0003,1.0003,1.0009,1.001,1.0011,1.0029,0,0,0,0,0,0,1.0073,1.0072,1.0074,1.0062,1.006,1.0058,1.0045,1.0042,1.0039,1.0037,1.0025,1.0023,1.0013,1.0012,1.0011,1.0015,1.0002,1.0009,1.001,1.0011,1.0028,1.003,1.0032,0,0,0,0,0,1.0074,1.0079,1.0074,1.0073,1.0062,1.0058,1.0057,1.0046,1.0039,1.0041,1.0033,1.0023,1.0016,1.0012,1.0011,1.0015,1.0009,1.001,1.001,1.0027,1.003,1.0032,0,0,0,0,0,0,1.0092,1.0078,1.0072,1.0074,1.0067,1.0055,1.0057,1.0049,1.0044,1.0043,1.0029,1.0026,1.0027,1.0021,1.0017,1.002,1.0011,1.0012,1.0024,1.0026,1.0029,1.0029,1.0002,0,0,0,0,0,1.0096,1.0094,1.0082,1.0085,1.0082,1.0071,1.0068,1.0061,1.0053,1.005,1.0042,1.0035,1.0031,1.0029,1.0024,1.0027,1.0024,1.003,1.0032,1.0034,1.0034,1.0035,1.0037,1.0014,1.0014,1.0014,0,0,1.0104,1.0097,1.0096,1.0089,1.0083,1.0081,1.0068,1.0067,1.0065,1.005,1.0049,1.0042,1.0034,1.0035,1.0035,1.003,1.004,1.0035,1.0036,1.0036,1.0036,1.0038,1.004,1.0015,1.0015,1.0014,0,0,1.0119,1.0113,1.0115,1.011,1.0101,1.0093,1.0094,1.0083,1.0078,1.0077,1.0066,1.0063,1.0057,1.0051,1.0047,1.0061,1.0051,1.006,1.007,1.0071,1.0073,1.0074,1.0078,1.008,1.006,1.0061,1.0061,0,1.013,1.0127,1.0117,1.0116,1.0113,1.01,1.0101,1.0096,1.0087,1.0085,1.008,1.0071,1.0065,1.0064,1.0067,1.0065,1.0065,1.006,1.0074,1.0075,1.0076,1.008,1.0081,1.0062,1.0061,1.0061,1.0061,0,1.0142,1.014,1.0142,1.0134,1.0131,1.0132,1.0121,1.0119,1.0112,1.0104,1.0103,1.0095,1.0089,1.0088,1.0081,1.0086,1.0083,1.0076,1.0066,1.008,1.0083,1.0084,1.0063,1.0063,1.0062,1.0062,0,0,1.0165,1.0152,1.0153,1.0149,1.0139,1.0137,1.0137,1.0132,1.013,1.0124,1.0123,1.0119,1.0112,1.0108,1.01,1.0101,1.0111,1.0093,1.0093,1.0096,1.0116,1.0121,1.0122,1.0105,1.0106,1.0106,1.0116,0,1.0177,1.0176,1.0167,1.0169,1.0167,1.0155,1.0155,1.0148,1.0142,1.0139,1.0132,1.0128,1.012,1.0117,1.0118,1.011,1.0115,1.0109,1.0104,1.0104,1.0105,1.0124,1.0129,1.0139,1.0118,1.0118,1.0118,0,1.0191,1.0186,1.0188,1.0178,1.0177,1.0177,1.0171,1.0169,1.0161,1.0157,1.0152,1.0144,1.0142,1.0134,1.0132,1.0129,1.0126,1.0122,1.0122,1.012,1.0111,1.0122,1.0142,1.0144,1.012,1.012,1.012,0,1.0207,1.0201,1.0201,1.0198,1.0187,1.0188,1.0183,1.0175,1.0173,1.0168,1.0166,1.016,1.0157,1.0153,1.0143,1.0138,1.0142,1.0133,1.0137,1.0137,1.0137,1.0137,1.0157,1.0138,1.0138,1.0138,1.0138,0,1.022,1.0221,1.0208,1.0208,1.0209,1.0199,1.02,1.0194,1.0188,1.0186,1.0176,1.0174,1.0162,1.0159,1.0151,1.015,1.0149,1.0144,1.0142,1.0145,1.0145,1.0142,1.014,1.0138,1.0138,1.0138,1.0138,0,1.0238,1.0229,1.0228,1.0218,1.0216,1.0217,1.0208,1.0207,1.0201,1.0199,1.0198,1.0187,1.0183,1.0173,1.0166,1.0161,1.0162,1.0159,1.0164,1.0163,1.0167,1.0167,1.0184,1.0186,1.0167,1.0167,1.0167,0,1.0246,1.0247,1.0237,1.0236,1.0232,1.0229,1.0226,1.0216,1.0214,1.0206,1.0206,1.0202,1.0197,1.0192,1.0183,1.0178,1.0173,1.018,1.0172,1.0175,1.0172,1.0172,1.0172,1.0181,1.0182,1.0182,1.0182,0,1.0262,1.0258,1.0255,1.025,1.0247,1.0243,1.0238,1.0237,1.0226,1.0224,1.022,1.0217,1.021,1.0206,1.0199,1.0194,1.0186,1.0185,1.0185,1.0187,1.019,1.0188,1.0168,1.0184,1.0184,1.0184,1.0183,1.0183,1.0275,1.0275,1.0268,1.0264,1.026,1.0256,1.0255,1.0248,1.0245,1.0239,1.0234,1.023,1.0223,1.0214,1.0209,1.0206,1.0202,1.0203,1.0203,1.0203,1.0204,1.0192,1.0205,1.0205,1.0205,1.0205,1.0205,0,1.0289,1.0284,1.0282,1.0275,1.0273,1.0267,1.0261,1.0259,1.0256,1.0251,1.0247,1.0242,1.0238,1.0229,1.0224,1.0223,1.0219,1.0222,1.0221,1.022,1.0208,1.0208,1.0225,1.0225,1.0225,1.0225,1.0225,1.0225,1.0296,1.0296,1.0291,1.0288,1.0283,1.028,1.0277,1.0273,1.0269,1.0265,1.0261,1.0256,1.0249,1.0243,1.0239,1.0236,1.0234,1.0238,1.0234,1.0223,1.0221,1.0219,1.0219,1.0238,1.0238,1.0246,1.0246,1.0246]}]]